Year,Month,Day,Hour,Minute,Value (Times are PST for temperature in C)
2015,03,23,00,00,0.30
2015,03,23,00,01,0.10
2015,03,23,00,02,0.10
2015,03,23,00,03,0.10
2015,03,23,00,04,0.10
2015,03,23,00,05,0.10
2015,03,23,00,06,0.10
2015,03,23,00,07,0.10
2015,03,23,00,08,0.10
2015,03,23,00,09,0.10
2015,03,23,00,10,0.10
2015,03,23,00,11,0.10
2015,03,23,00,12,0.10
2015,03,23,00,13,0.10
2015,03,23,00,14,0.10
2015,03,23,00,15,0.10
2015,03,23,00,16,-0.10
2015,03,23,00,17,-0.10
2015,03,23,00,18,-0.10
2015,03,23,00,19,-0.10
2015,03,23,00,20,-0.10
2015,03,23,00,21,-0.10
2015,03,23,00,22,-0.10
2015,03,23,00,23,-0.10
2015,03,23,00,24,-0.10
2015,03,23,00,25,-0.10
2015,03,23,00,26,-0.10
2015,03,23,00,27,-0.10
2015,03,23,00,28,-0.10
2015,03,23,00,29,-0.10
2015,03,23,00,30,-0.10
2015,03,23,00,31,-0.20
2015,03,23,00,32,-0.20
2015,03,23,00,33,-0.20
2015,03,23,00,34,-0.20
2015,03,23,00,35,-0.20
2015,03,23,00,36,-0.20
2015,03,23,00,37,-0.20
2015,03,23,00,38,-0.20
2015,03,23,00,39,-0.20
2015,03,23,00,40,-0.20
2015,03,23,00,41,-0.20
2015,03,23,00,42,-0.20
2015,03,23,00,43,-0.20
2015,03,23,00,44,-0.20
2015,03,23,00,45,-0.20
2015,03,23,00,46,-0.20
2015,03,23,00,47,-0.20
2015,03,23,00,48,-0.20
2015,03,23,00,49,-0.20
2015,03,23,00,50,-0.20
2015,03,23,00,51,-0.20
2015,03,23,00,52,-0.20
2015,03,23,00,53,-0.20
2015,03,23,00,54,-0.20
2015,03,23,00,55,-0.20
2015,03,23,00,56,-0.20
2015,03,23,00,57,-0.20
2015,03,23,00,58,-0.20
2015,03,23,00,59,-0.20
2015,03,23,01,00,-0.20
2015,03,23,01,01,-0.20
2015,03,23,01,02,-0.20
2015,03,23,01,03,-0.20
2015,03,23,01,04,-0.20
2015,03,23,01,05,-0.20
2015,03,23,01,06,-0.20
2015,03,23,01,07,-0.20
2015,03,23,01,08,-0.20
2015,03,23,01,09,-0.20
2015,03,23,01,10,-0.20
2015,03,23,01,11,-0.20
2015,03,23,01,12,-0.20
2015,03,23,01,13,-0.20
2015,03,23,01,14,-0.20
2015,03,23,01,15,-0.20
2015,03,23,01,16,-0.30
2015,03,23,01,17,-0.30
2015,03,23,01,18,-0.30
2015,03,23,01,19,-0.30
2015,03,23,01,20,-0.30
2015,03,23,01,21,-0.30
2015,03,23,01,22,-0.30
2015,03,23,01,23,-0.30
2015,03,23,01,24,-0.30
2015,03,23,01,25,-0.30
2015,03,23,01,26,-0.30
2015,03,23,01,27,-0.30
2015,03,23,01,28,-0.30
2015,03,23,01,29,-0.30
2015,03,23,01,30,-0.30
2015,03,23,01,31,-0.40
2015,03,23,01,32,-0.40
2015,03,23,01,33,-0.40
2015,03,23,01,34,-0.40
2015,03,23,01,35,-0.40
2015,03,23,01,36,-0.40
2015,03,23,01,37,-0.40
2015,03,23,01,38,-0.40
2015,03,23,01,39,-0.40
2015,03,23,01,40,-0.40
2015,03,23,01,41,-0.40
2015,03,23,01,42,-0.40
2015,03,23,01,43,-0.40
2015,03,23,01,44,-0.40
2015,03,23,01,45,-0.40
2015,03,23,01,46,-0.70
2015,03,23,01,47,-0.70
2015,03,23,01,48,-0.70
2015,03,23,01,49,-0.70
2015,03,23,01,50,-0.70
2015,03,23,01,51,-0.70
2015,03,23,01,52,-0.70
2015,03,23,01,53,-0.70
2015,03,23,01,54,-0.70
2015,03,23,01,55,-0.70
2015,03,23,01,56,-0.70
2015,03,23,01,57,-0.70
2015,03,23,01,58,-0.70
2015,03,23,01,59,-0.70
2015,03,23,02,00,-0.70
2015,03,23,02,01,-0.70
2015,03,23,02,02,-0.70
2015,03,23,02,03,-0.70
2015,03,23,02,04,-0.70
2015,03,23,02,05,-0.70
2015,03,23,02,06,-0.70
2015,03,23,02,07,-0.70
2015,03,23,02,08,-0.70
2015,03,23,02,09,-0.70
2015,03,23,02,10,-0.70
2015,03,23,02,11,-0.70
2015,03,23,02,12,-0.70
2015,03,23,02,13,-0.70
2015,03,23,02,14,-0.70
2015,03,23,02,15,-0.70
2015,03,23,02,17,-0.80
2015,03,23,02,18,-0.80
2015,03,23,02,19,-0.80
2015,03,23,02,20,-0.80
2015,03,23,02,21,-0.80
2015,03,23,02,22,-0.80
2015,03,23,02,23,-0.80
2015,03,23,02,24,-0.80
2015,03,23,02,25,-0.80
2015,03,23,02,26,-0.80
2015,03,23,02,27,-0.80
2015,03,23,02,28,-0.80
2015,03,23,02,29,-0.80
2015,03,23,02,30,-0.80
2015,03,23,02,31,-1.10
2015,03,23,02,32,-1.10
2015,03,23,02,33,-1.10
2015,03,23,02,34,-1.10
2015,03,23,02,35,-1.10
2015,03,23,02,36,-1.10
2015,03,23,02,37,-1.10
2015,03,23,02,38,-1.10
2015,03,23,02,39,-1.10
2015,03,23,02,40,-1.10
2015,03,23,02,41,-1.10
2015,03,23,02,42,-1.10
2015,03,23,02,43,-1.10
2015,03,23,02,44,-1.10
2015,03,23,02,45,-1.10
2015,03,23,02,46,-1.20
2015,03,23,02,47,-1.20
2015,03,23,02,48,-1.20
2015,03,23,02,49,-1.20
2015,03,23,02,50,-1.20
2015,03,23,02,51,-1.20
2015,03,23,02,52,-1.20
2015,03,23,02,53,-1.20
2015,03,23,02,54,-1.20
2015,03,23,02,55,-1.20
2015,03,23,02,56,-1.20
2015,03,23,02,57,-1.20
2015,03,23,02,58,-1.20
2015,03,23,02,59,-1.20
2015,03,23,03,00,-1.20
2015,03,23,03,01,-1.30
2015,03,23,03,02,-1.30
2015,03,23,03,03,-1.30
2015,03,23,03,04,-1.30
2015,03,23,03,05,-1.30
2015,03,23,03,06,-1.30
2015,03,23,03,07,-1.30
2015,03,23,03,08,-1.30
2015,03,23,03,09,-1.30
2015,03,23,03,10,-1.30
2015,03,23,03,11,-1.30
2015,03,23,03,12,-1.30
2015,03,23,03,13,-1.30
2015,03,23,03,14,-1.30
2015,03,23,03,15,-1.30
2015,03,23,03,16,-1.40
2015,03,23,03,17,-1.40
2015,03,23,03,18,-1.40
2015,03,23,03,19,-1.40
2015,03,23,03,20,-1.40
2015,03,23,03,21,-1.40
2015,03,23,03,22,-1.40
2015,03,23,03,23,-1.40
2015,03,23,03,24,-1.40
2015,03,23,03,25,-1.40
2015,03,23,03,26,-1.40
2015,03,23,03,27,-1.40
2015,03,23,03,28,-1.40
2015,03,23,03,29,-1.40
2015,03,23,03,30,-1.40
2015,03,23,03,31,-1.50
2015,03,23,03,32,-1.50
2015,03,23,03,33,-1.50
2015,03,23,03,34,-1.50
2015,03,23,03,35,-1.50
2015,03,23,03,36,-1.50
2015,03,23,03,37,-1.50
2015,03,23,03,38,-1.50
2015,03,23,03,39,-1.50
2015,03,23,03,40,-1.50
2015,03,23,03,41,-1.50
2015,03,23,03,42,-1.50
2015,03,23,03,43,-1.50
2015,03,23,03,44,-1.50
2015,03,23,03,45,-1.50
2015,03,23,03,46,-1.60
2015,03,23,03,47,-1.60
2015,03,23,03,48,-1.60
2015,03,23,03,49,-1.60
2015,03,23,03,50,-1.60
2015,03,23,03,51,-1.60
2015,03,23,03,52,-1.60
2015,03,23,03,53,-1.60
2015,03,23,03,54,-1.60
2015,03,23,03,55,-1.60
2015,03,23,03,56,-1.60
2015,03,23,03,57,-1.60
2015,03,23,03,58,-1.60
2015,03,23,03,59,-1.60
2015,03,23,04,00,-1.60
2015,03,23,04,01,-1.80
2015,03,23,04,02,-1.80
2015,03,23,04,03,-1.80
2015,03,23,04,04,-1.80
2015,03,23,04,05,-1.80
2015,03,23,04,06,-1.80
2015,03,23,04,07,-1.80
2015,03,23,04,08,-1.80
2015,03,23,04,09,-1.80
2015,03,23,04,10,-1.80
2015,03,23,04,11,-1.80
2015,03,23,04,12,-1.80
2015,03,23,04,13,-1.80
2015,03,23,04,14,-1.80
2015,03,23,04,15,-1.80
2015,03,23,04,16,-1.60
2015,03,23,04,17,-1.60
2015,03,23,04,18,-1.60
2015,03,23,04,19,-1.60
2015,03,23,04,20,-1.60
2015,03,23,04,21,-1.60
2015,03,23,04,22,-1.60
2015,03,23,04,23,-1.60
2015,03,23,04,24,-1.60
2015,03,23,04,25,-1.60
2015,03,23,04,26,-1.60
2015,03,23,04,27,-1.60
2015,03,23,04,28,-1.60
2015,03,23,04,29,-1.60
2015,03,23,04,30,-1.60
2015,03,23,04,31,-1.80
2015,03,23,04,32,-1.80
2015,03,23,04,33,-1.80
2015,03,23,04,34,-1.80
2015,03,23,04,35,-1.80
2015,03,23,04,36,-1.80
2015,03,23,04,37,-1.80
2015,03,23,04,38,-1.80
2015,03,23,04,39,-1.80
2015,03,23,04,40,-1.80
2015,03,23,04,41,-1.80
2015,03,23,04,42,-1.80
2015,03,23,04,43,-1.80
2015,03,23,04,44,-1.80
2015,03,23,04,45,-1.80
2015,03,23,04,46,-1.80
2015,03,23,04,47,-1.80
2015,03,23,04,48,-1.80
2015,03,23,04,49,-1.80
2015,03,23,04,50,-1.80
2015,03,23,04,51,-1.80
2015,03,23,04,52,-1.80
2015,03,23,04,53,-1.80
2015,03,23,04,54,-1.80
2015,03,23,04,55,-1.80
2015,03,23,04,56,-1.80
2015,03,23,04,57,-1.80
2015,03,23,04,58,-1.80
2015,03,23,04,59,-1.80
2015,03,23,05,00,-1.80
2015,03,23,05,01,-2.10
2015,03,23,05,02,-2.10
2015,03,23,05,03,-2.10
2015,03,23,05,04,-2.10
2015,03,23,05,05,-2.10
2015,03,23,05,06,-2.10
2015,03,23,05,07,-2.10
2015,03,23,05,08,-2.10
2015,03,23,05,09,-2.10
2015,03,23,05,10,-2.10
2015,03,23,05,11,-2.10
2015,03,23,05,12,-2.10
2015,03,23,05,13,-2.10
2015,03,23,05,14,-2.10
2015,03,23,05,15,-2.10
2015,03,23,05,16,-2.10
2015,03,23,05,17,-2.10
2015,03,23,05,18,-2.10
2015,03,23,05,19,-2.10
2015,03,23,05,20,-2.10
2015,03,23,05,21,-2.10
2015,03,23,05,22,-2.10
2015,03,23,05,23,-2.10
2015,03,23,05,24,-2.10
2015,03,23,05,25,-2.10
2015,03,23,05,26,-2.10
2015,03,23,05,27,-2.10
2015,03,23,05,28,-2.10
2015,03,23,05,29,-2.10
2015,03,23,05,30,-2.10
2015,03,23,05,31,-2.30
2015,03,23,05,32,-2.30
2015,03,23,05,33,-2.30
2015,03,23,05,34,-2.30
2015,03,23,05,35,-2.30
2015,03,23,05,36,-2.30
2015,03,23,05,37,-2.30
2015,03,23,05,38,-2.30
2015,03,23,05,39,-2.30
2015,03,23,05,40,-2.30
2015,03,23,05,41,-2.30
2015,03,23,05,42,-2.30
2015,03,23,05,43,-2.30
2015,03,23,05,44,-2.30
2015,03,23,05,45,-2.30
2015,03,23,05,46,-2.30
2015,03,23,05,47,-2.30
2015,03,23,05,48,-2.30
2015,03,23,05,49,-2.30
2015,03,23,05,50,-2.30
2015,03,23,05,51,-2.30
2015,03,23,05,52,-2.30
2015,03,23,05,53,-2.30
2015,03,23,05,54,-2.30
2015,03,23,05,55,-2.30
2015,03,23,05,56,-2.30
2015,03,23,05,57,-2.30
2015,03,23,05,58,-2.30
2015,03,23,05,59,-2.30
2015,03,23,06,00,-2.30
2015,03,23,06,01,-2.30
2015,03,23,06,02,-2.30
2015,03,23,06,03,-2.30
2015,03,23,06,04,-2.30
2015,03,23,06,05,-2.30
2015,03,23,06,06,-2.30
2015,03,23,06,07,-2.30
2015,03,23,06,08,-2.30
2015,03,23,06,09,-2.30
2015,03,23,06,10,-2.30
2015,03,23,06,11,-2.30
2015,03,23,06,12,-2.30
2015,03,23,06,13,-2.30
2015,03,23,06,14,-2.30
2015,03,23,06,15,-2.30
2015,03,23,06,16,-2.60
2015,03,23,06,17,-2.60
2015,03,23,06,18,-2.60
2015,03,23,06,19,-2.60
2015,03,23,06,20,-2.60
2015,03,23,06,21,-2.60
2015,03,23,06,22,-2.60
2015,03,23,06,23,-2.60
2015,03,23,06,24,-2.60
2015,03,23,06,25,-2.60
2015,03,23,06,26,-2.60
2015,03,23,06,27,-2.60
2015,03,23,06,28,-2.60
2015,03,23,06,29,-2.60
2015,03,23,06,30,-2.60
2015,03,23,06,31,-2.60
2015,03,23,06,32,-2.60
2015,03,23,06,33,-2.60
2015,03,23,06,34,-2.60
2015,03,23,06,35,-2.60
2015,03,23,06,36,-2.60
2015,03,23,06,37,-2.60
2015,03,23,06,38,-2.60
2015,03,23,06,39,-2.60
2015,03,23,06,40,-2.60
2015,03,23,06,41,-2.60
2015,03,23,06,42,-2.60
2015,03,23,06,43,-2.60
2015,03,23,06,44,-2.60
2015,03,23,06,45,-2.60
2015,03,23,06,46,-2.40
2015,03,23,06,47,-2.40
2015,03,23,06,48,-2.40
2015,03,23,06,49,-2.40
2015,03,23,06,50,-2.40
2015,03,23,06,51,-2.40
2015,03,23,06,52,-2.40
2015,03,23,06,53,-2.40
2015,03,23,06,54,-2.40
2015,03,23,06,55,-2.40
2015,03,23,06,56,-2.40
2015,03,23,06,57,-2.40
2015,03,23,06,58,-2.40
2015,03,23,06,59,-2.40
2015,03,23,07,00,-2.40
2015,03,23,07,01,-2.40
2015,03,23,07,02,-2.40
2015,03,23,07,03,-2.40
2015,03,23,07,04,-2.40
2015,03,23,07,05,-2.40
2015,03,23,07,06,-2.40
2015,03,23,07,07,-2.40
2015,03,23,07,08,-2.40
2015,03,23,07,09,-2.40
2015,03,23,07,10,-2.40
2015,03,23,07,11,-2.40
2015,03,23,07,12,-2.40
2015,03,23,07,13,-2.40
2015,03,23,07,14,-2.40
2015,03,23,07,15,-2.40
2015,03,23,07,17,-2.20
2015,03,23,07,18,-2.20
2015,03,23,07,19,-2.20
2015,03,23,07,20,-2.20
2015,03,23,07,21,-2.20
2015,03,23,07,22,-2.20
2015,03,23,07,23,-2.20
2015,03,23,07,24,-2.20
2015,03,23,07,25,-2.20
2015,03,23,07,26,-2.20
2015,03,23,07,27,-2.20
2015,03,23,07,28,-2.20
2015,03,23,07,29,-2.20
2015,03,23,07,30,-2.20
2015,03,23,07,31,-2.40
2015,03,23,07,32,-2.40
2015,03,23,07,33,-2.40
2015,03,23,07,34,-2.40
2015,03,23,07,35,-2.40
2015,03,23,07,36,-2.40
2015,03,23,07,37,-2.40
2015,03,23,07,38,-2.40
2015,03,23,07,39,-2.40
2015,03,23,07,40,-2.40
2015,03,23,07,41,-2.40
2015,03,23,07,42,-2.40
2015,03,23,07,43,-2.40
2015,03,23,07,44,-2.40
2015,03,23,07,45,-2.40
2015,03,23,07,46,-2.70
2015,03,23,07,47,-2.70
2015,03,23,07,48,-2.70
2015,03,23,07,49,-2.70
2015,03,23,07,50,-2.70
2015,03,23,07,51,-2.70
2015,03,23,07,52,-2.70
2015,03,23,07,53,-2.70
2015,03,23,07,54,-2.70
2015,03,23,07,55,-2.70
2015,03,23,07,56,-2.70
2015,03,23,07,57,-2.70
2015,03,23,07,58,-2.70
2015,03,23,07,59,-2.70
2015,03,23,08,00,-2.70
2015,03,23,08,02,-2.40
2015,03,23,08,03,-2.40
2015,03,23,08,04,-2.40
2015,03,23,08,05,-2.40
2015,03,23,08,06,-2.40
2015,03,23,08,07,-2.40
2015,03,23,08,08,-2.40
2015,03,23,08,09,-2.40
2015,03,23,08,10,-2.40
2015,03,23,08,11,-2.40
2015,03,23,08,12,-2.40
2015,03,23,08,13,-2.40
2015,03,23,08,14,-2.40
2015,03,23,08,15,-2.40
2015,03,23,08,16,-2.30
2015,03,23,08,17,-2.30
2015,03,23,08,18,-2.30
2015,03,23,08,19,-2.30
2015,03,23,08,20,-2.30
2015,03,23,08,21,-2.30
2015,03,23,08,22,-2.30
2015,03,23,08,23,-2.30
2015,03,23,08,24,-2.30
2015,03,23,08,25,-2.30
2015,03,23,08,26,-2.30
2015,03,23,08,27,-2.30
2015,03,23,08,28,-2.30
2015,03,23,08,29,-2.30
2015,03,23,08,30,-2.30
2015,03,23,08,31,-1.80
2015,03,23,08,32,-1.80
2015,03,23,08,33,-1.80
2015,03,23,08,34,-1.80
2015,03,23,08,35,-1.80
2015,03,23,08,36,-1.80
2015,03,23,08,37,-1.80
2015,03,23,08,38,-1.80
2015,03,23,08,39,-1.80
2015,03,23,08,40,-1.80
2015,03,23,08,41,-1.80
2015,03,23,08,42,-1.80
2015,03,23,08,43,-1.80
2015,03,23,08,44,-1.80
2015,03,23,08,45,-1.80
2015,03,23,08,46,-1.20
2015,03,23,08,47,-1.20
2015,03,23,08,48,-1.20
2015,03,23,08,49,-1.20
2015,03,23,08,50,-1.20
2015,03,23,08,51,-1.20
2015,03,23,08,52,-1.20
2015,03,23,08,53,-1.20
2015,03,23,08,54,-1.20
2015,03,23,08,55,-1.20
2015,03,23,08,56,-1.20
2015,03,23,08,57,-1.20
2015,03,23,08,58,-1.20
2015,03,23,08,59,-1.20
2015,03,23,09,00,-1.20
2015,03,23,09,01,-0.60
2015,03,23,09,02,-0.60
2015,03,23,09,03,-0.60
2015,03,23,09,04,-0.60
2015,03,23,09,05,-0.60
2015,03,23,09,06,-0.60
2015,03,23,09,07,-0.60
2015,03,23,09,08,-0.60
2015,03,23,09,09,-0.60
2015,03,23,09,10,-0.60
2015,03,23,09,11,-0.60
2015,03,23,09,12,-0.60
2015,03,23,09,13,-0.60
2015,03,23,09,14,-0.60
2015,03,23,09,15,-0.60
2015,03,23,09,17,0.30
2015,03,23,09,18,0.30
2015,03,23,09,19,0.30
2015,03,23,09,20,0.30
2015,03,23,09,21,0.30
2015,03,23,09,22,0.30
2015,03,23,09,23,0.30
2015,03,23,09,24,0.30
2015,03,23,09,25,0.30
2015,03,23,09,26,0.30
2015,03,23,09,27,0.30
2015,03,23,09,28,0.30
2015,03,23,09,29,0.30
2015,03,23,09,30,0.30
2015,03,23,09,31,0.30
2015,03,23,09,32,0.30
2015,03,23,09,33,0.30
2015,03,23,09,34,0.30
2015,03,23,09,35,0.30
2015,03,23,09,36,0.30
2015,03,23,09,37,0.30
2015,03,23,09,38,0.30
2015,03,23,09,39,0.30
2015,03,23,09,40,0.30
2015,03,23,09,41,0.30
2015,03,23,09,42,0.30
2015,03,23,09,43,0.30
2015,03,23,09,44,0.30
2015,03,23,09,45,0.30
2015,03,23,09,46,0.20
2015,03,23,09,47,0.20
2015,03,23,09,48,0.20
2015,03,23,09,49,0.20
2015,03,23,09,50,0.20
2015,03,23,09,51,0.20
2015,03,23,09,52,0.20
2015,03,23,09,53,0.20
2015,03,23,09,54,0.20
2015,03,23,09,55,0.20
2015,03,23,09,56,0.20
2015,03,23,09,57,0.20
2015,03,23,09,58,0.20
2015,03,23,09,59,0.20
2015,03,23,10,00,0.20
2015,03,23,10,01,0.20
2015,03,23,10,02,0.20
2015,03,23,10,03,0.20
2015,03,23,10,04,0.20
2015,03,23,10,05,0.20
2015,03,23,10,06,0.20
2015,03,23,10,07,0.20
2015,03,23,10,08,0.20
2015,03,23,10,09,0.20
2015,03,23,10,10,0.20
2015,03,23,10,11,0.20
2015,03,23,10,12,0.20
2015,03,23,10,13,0.20
2015,03,23,10,14,0.20
2015,03,23,10,15,0.20
2015,03,23,10,16,0.30
2015,03,23,10,17,0.30
2015,03,23,10,18,0.30
2015,03,23,10,19,0.30
2015,03,23,10,20,0.30
2015,03,23,10,21,0.30
2015,03,23,10,22,0.30
2015,03,23,10,23,0.30
2015,03,23,10,24,0.30
2015,03,23,10,25,0.30
2015,03,23,10,26,0.30
2015,03,23,10,27,0.30
2015,03,23,10,28,0.30
2015,03,23,10,29,0.30
2015,03,23,10,30,0.30
2015,03,23,10,31,0.60
2015,03,23,10,32,0.60
2015,03,23,10,33,0.60
2015,03,23,10,34,0.60
2015,03,23,10,35,0.60
2015,03,23,10,36,0.60
2015,03,23,10,37,0.60
2015,03,23,10,38,0.60
2015,03,23,10,39,0.60
2015,03,23,10,40,0.60
2015,03,23,10,41,0.60
2015,03,23,10,42,0.60
2015,03,23,10,43,0.60
2015,03,23,10,44,0.60
2015,03,23,10,45,0.60
2015,03,23,10,46,0.50
2015,03,23,10,47,0.50
2015,03,23,10,48,0.50
2015,03,23,10,49,0.50
2015,03,23,10,50,0.50
2015,03,23,10,51,0.50
2015,03,23,10,52,0.50
2015,03,23,10,53,0.50
2015,03,23,10,54,0.50
2015,03,23,10,55,0.50
2015,03,23,10,56,0.50
2015,03,23,10,57,0.50
2015,03,23,10,58,0.50
2015,03,23,10,59,0.50
2015,03,23,11,00,0.50
2015,03,23,11,01,0.30
2015,03,23,11,02,0.30
2015,03,23,11,03,0.30
2015,03,23,11,04,0.30
2015,03,23,11,05,0.30
2015,03,23,11,06,0.30
2015,03,23,11,07,0.30
2015,03,23,11,08,0.30
2015,03,23,11,09,0.30
2015,03,23,11,10,0.30
2015,03,23,11,11,0.30
2015,03,23,11,12,0.30
2015,03,23,11,13,0.30
2015,03,23,11,14,0.30
2015,03,23,11,15,0.30
2015,03,23,11,16,0.60
2015,03,23,11,17,0.60
2015,03,23,11,18,0.60
2015,03,23,11,19,0.60
2015,03,23,11,20,0.60
2015,03,23,11,21,0.60
2015,03,23,11,22,0.60
2015,03,23,11,23,0.60
2015,03,23,11,24,0.60
2015,03,23,11,25,0.60
2015,03,23,11,26,0.60
2015,03,23,11,27,0.60
2015,03,23,11,28,0.60
2015,03,23,11,29,0.60
2015,03,23,11,30,0.60
2015,03,23,11,31,0.80
2015,03,23,11,32,0.80
2015,03,23,11,33,0.80
2015,03,23,11,34,0.80
2015,03,23,11,35,0.80
2015,03,23,11,36,0.80
2015,03,23,11,37,0.80
2015,03,23,11,38,0.80
2015,03,23,11,39,0.80
2015,03,23,11,40,0.80
2015,03,23,11,41,0.80
2015,03,23,11,42,0.80
2015,03,23,11,43,0.80
2015,03,23,11,44,0.80
2015,03,23,11,45,0.80
2015,03,23,11,46,0.80
2015,03,23,11,47,0.80
2015,03,23,11,48,0.80
2015,03,23,11,49,0.80
2015,03,23,11,50,0.80
2015,03,23,11,51,0.80
2015,03,23,11,52,0.80
2015,03,23,11,53,0.80
2015,03,23,11,54,0.80
2015,03,23,11,55,0.80
2015,03,23,11,56,0.80
2015,03,23,11,57,0.80
2015,03,23,11,58,0.80
2015,03,23,11,59,0.80
2015,03,23,12,00,0.80
2015,03,23,12,01,0.70
2015,03,23,12,02,0.70
2015,03,23,12,03,0.70
2015,03,23,12,04,0.70
2015,03,23,12,05,0.70
2015,03,23,12,06,0.70
2015,03,23,12,07,0.70
2015,03,23,12,08,0.70
2015,03,23,12,09,0.70
2015,03,23,12,10,0.70
2015,03,23,12,11,0.70
2015,03,23,12,12,0.70
2015,03,23,12,13,0.70
2015,03,23,12,14,0.70
2015,03,23,12,15,0.70
2015,03,23,12,16,0.80
2015,03,23,12,17,0.80
2015,03,23,12,18,0.80
2015,03,23,12,19,0.80
2015,03,23,12,20,0.80
2015,03,23,12,21,0.80
2015,03,23,12,22,0.80
2015,03,23,12,23,0.80
2015,03,23,12,24,0.80
2015,03,23,12,25,0.80
2015,03,23,12,26,0.80
2015,03,23,12,27,0.80
2015,03,23,12,28,0.80
2015,03,23,12,29,0.80
2015,03,23,12,30,0.80
2015,03,23,12,31,0.80
2015,03,23,12,32,0.80
2015,03,23,12,33,0.80
2015,03,23,12,34,0.80
2015,03,23,12,35,0.80
2015,03,23,12,36,0.80
2015,03,23,12,37,0.80
2015,03,23,12,38,0.80
2015,03,23,12,39,0.80
2015,03,23,12,40,0.80
2015,03,23,12,41,0.80
2015,03,23,12,42,0.80
2015,03,23,12,43,0.80
2015,03,23,12,44,0.80
2015,03,23,12,45,0.80
2015,03,23,12,46,1.00
2015,03,23,12,47,1.00
2015,03,23,12,48,1.00
2015,03,23,12,49,1.00
2015,03,23,12,50,1.00
2015,03,23,12,51,1.00
2015,03,23,12,52,1.00
2015,03,23,12,53,1.00
2015,03,23,12,54,1.00
2015,03,23,12,55,1.00
2015,03,23,12,56,1.00
2015,03,23,12,57,1.00
2015,03,23,12,58,1.00
2015,03,23,12,59,1.00
2015,03,23,13,00,1.00
2015,03,23,13,01,1.00
2015,03,23,13,02,1.00
2015,03,23,13,03,1.00
2015,03,23,13,04,1.00
2015,03,23,13,05,1.00
2015,03,23,13,06,1.00
2015,03,23,13,07,1.00
2015,03,23,13,08,1.00
2015,03,23,13,09,1.00
2015,03,23,13,10,1.00
2015,03,23,13,11,1.00
2015,03,23,13,12,1.00
2015,03,23,13,13,1.00
2015,03,23,13,14,1.00
2015,03,23,13,15,1.00
2015,03,23,13,16,1.10
2015,03,23,13,17,1.10
2015,03,23,13,18,1.10
2015,03,23,13,19,1.10
2015,03,23,13,20,1.10
2015,03,23,13,21,1.10
2015,03,23,13,22,1.10
2015,03,23,13,23,1.10
2015,03,23,13,24,1.10
2015,03,23,13,25,1.10
2015,03,23,13,26,1.10
2015,03,23,13,27,1.10
2015,03,23,13,28,1.10
2015,03,23,13,29,1.10
2015,03,23,13,30,1.10
2015,03,23,13,31,1.30
2015,03,23,13,32,1.30
2015,03,23,13,33,1.30
2015,03,23,13,34,1.30
2015,03,23,13,35,1.30
2015,03,23,13,36,1.30
2015,03,23,13,37,1.30
2015,03,23,13,38,1.30
2015,03,23,13,39,1.30
2015,03,23,13,40,1.30
2015,03,23,13,41,1.30
2015,03,23,13,42,1.30
2015,03,23,13,43,1.30
2015,03,23,13,44,1.30
2015,03,23,13,45,1.30
2015,03,23,13,46,1.30
2015,03,23,13,47,1.30
2015,03,23,13,48,1.30
2015,03,23,13,49,1.30
2015,03,23,13,50,1.30
2015,03,23,13,51,1.30
2015,03,23,13,52,1.30
2015,03,23,13,53,1.30
2015,03,23,13,54,1.30
2015,03,23,13,55,1.30
2015,03,23,13,56,1.30
2015,03,23,13,57,1.30
2015,03,23,13,58,1.30
2015,03,23,13,59,1.30
2015,03,23,14,00,1.30
2015,03,23,14,01,1.40
2015,03,23,14,02,1.40
2015,03,23,14,03,1.40
2015,03,23,14,04,1.40
2015,03,23,14,05,1.40
2015,03,23,14,06,1.40
2015,03,23,14,07,1.40
2015,03,23,14,08,1.40
2015,03,23,14,09,1.40
2015,03,23,14,10,1.40
2015,03,23,14,11,1.40
2015,03,23,14,12,1.40
2015,03,23,14,13,1.40
2015,03,23,14,14,1.40
2015,03,23,14,15,1.40
2015,03,23,14,17,1.40
2015,03,23,14,18,1.40
2015,03,23,14,19,1.40
2015,03,23,14,20,1.40
2015,03,23,14,21,1.40
2015,03,23,14,22,1.40
2015,03,23,14,23,1.40
2015,03,23,14,24,1.40
2015,03,23,14,25,1.40
2015,03,23,14,26,1.40
2015,03,23,14,27,1.40
2015,03,23,14,28,1.40
2015,03,23,14,29,1.40
2015,03,23,14,30,1.40
2015,03,23,14,31,1.40
2015,03,23,14,32,1.40
2015,03,23,14,33,1.40
2015,03,23,14,34,1.40
2015,03,23,14,35,1.40
2015,03,23,14,36,1.40
2015,03,23,14,37,1.40
2015,03,23,14,38,1.40
2015,03,23,14,39,1.40
2015,03,23,14,40,1.40
2015,03,23,14,41,1.40
2015,03,23,14,42,1.40
2015,03,23,14,43,1.40
2015,03,23,14,44,1.40
2015,03,23,14,45,1.40
2015,03,23,14,46,1.20
2015,03,23,14,47,1.20
2015,03,23,14,48,1.20
2015,03,23,14,49,1.20
2015,03,23,14,50,1.20
2015,03,23,14,51,1.20
2015,03,23,14,52,1.20
2015,03,23,14,53,1.20
2015,03,23,14,54,1.20
2015,03,23,14,55,1.20
2015,03,23,14,56,1.20
2015,03,23,14,57,1.20
2015,03,23,14,58,1.20
2015,03,23,14,59,1.20
2015,03,23,15,00,1.20
2015,03,23,15,01,1.10
2015,03,23,15,02,1.10
2015,03,23,15,03,1.10
2015,03,23,15,04,1.10
2015,03,23,15,05,1.10
2015,03,23,15,06,1.10
2015,03,23,15,07,1.10
2015,03,23,15,08,1.10
2015,03,23,15,09,1.10
2015,03,23,15,10,1.10
2015,03,23,15,11,1.10
2015,03,23,15,12,1.10
2015,03,23,15,13,1.10
2015,03,23,15,14,1.10
2015,03,23,15,15,1.10
2015,03,23,15,16,1.30
2015,03,23,15,17,1.30
2015,03,23,15,18,1.30
2015,03,23,15,19,1.30
2015,03,23,15,20,1.30
2015,03,23,15,21,1.30
2015,03,23,15,22,1.30
2015,03,23,15,23,1.30
2015,03,23,15,24,1.30
2015,03,23,15,25,1.30
2015,03,23,15,26,1.30
2015,03,23,15,27,1.30
2015,03,23,15,28,1.30
2015,03,23,15,29,1.30
2015,03,23,15,30,1.30
2015,03,23,15,31,1.00
2015,03,23,15,32,1.00
2015,03,23,15,33,1.00
2015,03,23,15,34,1.00
2015,03,23,15,35,1.00
2015,03,23,15,36,1.00
2015,03,23,15,37,1.00
2015,03,23,15,38,1.00
2015,03,23,15,39,1.00
2015,03,23,15,40,1.00
2015,03,23,15,41,1.00
2015,03,23,15,42,1.00
2015,03,23,15,43,1.00
2015,03,23,15,44,1.00
2015,03,23,15,45,1.00
2015,03,23,15,47,1.00
2015,03,23,15,48,1.00
2015,03,23,15,49,1.00
2015,03,23,15,50,1.00
2015,03,23,15,51,1.00
2015,03,23,15,52,1.00
2015,03,23,15,53,1.00
2015,03,23,15,54,1.00
2015,03,23,15,55,1.00
2015,03,23,15,56,1.00
2015,03,23,15,57,1.00
2015,03,23,15,58,1.00
2015,03,23,15,59,1.00
2015,03,23,16,00,1.00
2015,03,23,16,01,1.30
2015,03,23,16,02,1.30
2015,03,23,16,03,1.30
2015,03,23,16,04,1.30
2015,03,23,16,05,1.30
2015,03,23,16,06,1.30
2015,03,23,16,07,1.30
2015,03,23,16,08,1.30
2015,03,23,16,09,1.30
2015,03,23,16,10,1.30
2015,03,23,16,11,1.30
2015,03,23,16,12,1.30
2015,03,23,16,13,1.30
2015,03,23,16,14,1.30
2015,03,23,16,15,1.30
2015,03,23,16,16,1.20
2015,03,23,16,17,1.20
2015,03,23,16,18,1.20
2015,03,23,16,19,1.20
2015,03,23,16,20,1.20
2015,03,23,16,21,1.20
2015,03,23,16,22,1.20
2015,03,23,16,23,1.20
2015,03,23,16,24,1.20
2015,03,23,16,25,1.20
2015,03,23,16,26,1.20
2015,03,23,16,27,1.20
2015,03,23,16,28,1.20
2015,03,23,16,29,1.20
2015,03,23,16,30,1.20
2015,03,23,16,31,1.30
2015,03,23,16,32,1.30
2015,03,23,16,33,1.30
2015,03,23,16,34,1.30
2015,03,23,16,35,1.30
2015,03,23,16,36,1.30
2015,03,23,16,37,1.30
2015,03,23,16,38,1.30
2015,03,23,16,39,1.30
2015,03,23,16,40,1.30
2015,03,23,16,41,1.30
2015,03,23,16,42,1.30
2015,03,23,16,43,1.30
2015,03,23,16,44,1.30
2015,03,23,16,45,1.30
2015,03,23,16,46,1.20
2015,03,23,16,47,1.20
2015,03,23,16,48,1.20
2015,03,23,16,49,1.20
2015,03,23,16,50,1.20
2015,03,23,16,51,1.20
2015,03,23,16,52,1.20
2015,03,23,16,53,1.20
2015,03,23,16,54,1.20
2015,03,23,16,55,1.20
2015,03,23,16,56,1.20
2015,03,23,16,57,1.20
2015,03,23,16,58,1.20
2015,03,23,16,59,1.20
2015,03,23,17,00,1.20
2015,03,23,17,01,1.10
2015,03,23,17,02,1.10
2015,03,23,17,03,1.10
2015,03,23,17,04,1.10
2015,03,23,17,05,1.10
2015,03,23,17,06,1.10
2015,03,23,17,07,1.10
2015,03,23,17,08,1.10
2015,03,23,17,09,1.10
2015,03,23,17,10,1.10
2015,03,23,17,11,1.10
2015,03,23,17,12,1.10
2015,03,23,17,13,1.10
2015,03,23,17,14,1.10
2015,03,23,17,15,1.10
2015,03,23,17,16,0.90
2015,03,23,17,17,0.90
2015,03,23,17,18,0.90
2015,03,23,17,19,0.90
2015,03,23,17,20,0.90
2015,03,23,17,21,0.90
2015,03,23,17,22,0.90
2015,03,23,17,23,0.90
2015,03,23,17,24,0.90
2015,03,23,17,25,0.90
2015,03,23,17,26,0.90
2015,03,23,17,27,0.90
2015,03,23,17,28,0.90
2015,03,23,17,29,0.90
2015,03,23,17,30,0.90
2015,03,23,17,31,0.60
2015,03,23,17,32,0.60
2015,03,23,17,33,0.60
2015,03,23,17,34,0.60
2015,03,23,17,35,0.60
2015,03,23,17,36,0.60
2015,03,23,17,37,0.60
2015,03,23,17,38,0.60
2015,03,23,17,39,0.60
2015,03,23,17,40,0.60
2015,03,23,17,41,0.60
2015,03,23,17,42,0.60
2015,03,23,17,43,0.60
2015,03,23,17,44,0.60
2015,03,23,17,45,0.60
2015,03,23,17,46,0.50
2015,03,23,17,47,0.50
2015,03,23,17,48,0.50